SP6PWT-13 Weather Reports


Display with metric or nautical units.
time (UTC)temp
F
wind
direction
speed
MPH
gust
MPH
rain 1hr
in
rain 24hr
in
rain mn
in
humidity
%
barometer
mb
20260506215107 57 30 3.0 5.0 0.03 0.00 0.54 98 990.3
20260506214607 57 25 3.0 5.0 0.03 0.00 0.54 98 990.2
20260506214107 57 48 5.0 8.0 0.03 0.00 0.54 98 989.9
20260506213606 57 61 6.0 13.0 0.03 0.00 0.54 98 989.7
20260506213105 57 42 6.0 9.0 0.03 0.00 0.53 98 990.1
20260506212604 57 25 3.0 5.0 0.02 0.00 0.52 98 990.3
20260506212104 57 41 1.0 2.0 0.03 0.00 0.52 98 990.7
20260506211603 57 65 0.0 0.0 0.04 0.00 0.52 97 990.7
20260506211102 57 59 0.0 3.0 0.05 0.00 0.52 97 990.5
20260506210601 57 23 0.0 1.0 0.06 0.00 0.52 97 990.5
20260506210100 57 359 0.0 1.0 0.06 0.00 0.51 97 990.6
20260506205600 58 334 1.0 2.0 0.08 0.00 0.51 97 990.7
20260506205100 57 138 0.0 0.0 0.10 0.00 0.51 97 990.7
20260506204600 57 194 2.0 2.0 0.11 0.00 0.51 97 991.0
20260506204059 57 146 3.0 3.0 0.15 0.00 0.51 97 990.7
20260506203559 57 126 0.0 0.0 0.15 0.00 0.50 97 990.7
20260506203058 57 77 0.0 3.0 0.16 0.00 0.50 97 990.4
20260506202558 57 81 3.0 5.0 0.15 0.00 0.49 96 990.5
20260506202057 58 51 1.0 3.0 0.14 0.00 0.48 96 990.4
20260506201556 58 25 2.0 3.0 0.13 0.00 0.47 96 990.2
20260506201046 58 2 3.0 3.0 0.13 0.00 0.46 96 990.5
20260506200545 58 275 2.0 5.0 0.12 0.00 0.45 96 990.8
20260506200044 58 253 3.0 3.0 0.10 0.00 0.43 96 990.8
20260506195534 58 44 0.0 8.0 0.10 0.00 0.42 96 990.7
20260506195034 58 288 7.0 8.0 0.09 0.00 0.40 96 991.1
20260506194523 58 264 2.0 8.0 0.06 0.00 0.36 96 990.7
20260506194023 58 288 6.0 9.0 0.07 0.00 0.35 96 990.6
20260506193513 58 336 3.0 6.0 0.09 0.00 0.34 96 990.1
20260506193013 58 18 4.0 6.0 0.13 0.00 0.34 96 990.1
20260506192513 58 286 6.0 7.0 0.13 0.00 0.34 95 990.3
20260506192012 58 5 2.0 3.0 0.15 0.00 0.34 95 990.0
20260506191511 58 49 0.0 3.0 0.17 0.00 0.33 95 989.9
20260506191010 58 33 2.0 2.0 0.17 0.00 0.33 94 990.0
20260506190509 58 78 1.0 2.0 0.20 0.00 0.33 94 990.5
20260506190009 58 98 1.0 2.0 0.20 0.00 0.32 94 990.5
20260506185509 58 329 1.0 2.0 0.19 0.00 0.31 94 990.5
20260506185008 58 254 1.0 2.0 0.20 0.00 0.30 93 990.4
20260506184507 58 42 0.0 2.0 0.18 0.00 0.28 93 990.4
20260506184006 58 96 0.0 1.0 0.15 0.00 0.25 92 990.2
20260506183505 58 145 5.0 6.0 0.13 0.00 0.23 91 990.5
20260506183005 59 152 6.0 7.0 0.12 0.00 0.21 90 990.3
20260506182503 59 141 7.0 9.0 0.10 0.00 0.19 89 990.6
20260506182003 60 145 8.0 10.0 0.09 0.00 0.18 87 990.5
20260506181502 60 204 3.0 5.0 0.07 0.00 0.16 84 990.1
20260506181001 60 222 2.0 6.0 0.05 0.00 0.14 85 989.6
20260506180501 60 203 3.0 6.0 0.04 0.00 0.13 86 989.7
20260506180001 60 166 4.0 6.0 0.05 0.00 0.12 85 989.5
20260506175501 60 212 3.0 6.0 0.06 0.00 0.11 84 989.6
20260506175000 60 135 1.0 1.0 0.07 0.00 0.10 87 989.8
20260506174500 60 126 0.0 1.0 0.09 0.00 0.10 86 989.5
20260506173959 60 78 1.0 2.0 0.10 0.00 0.10 86 989.4
20260506173448 60 117 5.0 5.0 0.10 0.00 0.10 83 989.2
20260506172948 61 148 3.0 3.0 0.09 0.00 0.09 84 989.2
20260506172437 61 123 6.0 7.0 0.09 0.00 0.09 83 988.9
20260506171936 61 132 5.0 6.0 0.09 0.00 0.09 82 988.8
20260506171435 61 113 4.0 5.0 0.09 0.00 0.09 80 988.7
20260506170924 61 107 5.0 6.0 0.09 0.00 0.09 81 988.6
20260506170424 61 74 0.0 1.0 0.08 0.00 0.08 81 988.8
20260506165913 62 211 3.0 6.0 0.07 0.00 0.07 77 988.9
20260506165412 62 132 5.0 8.0 0.04 0.00 0.04 76 989.3
20260506164901 64 180 8.0 17.0 0.03 0.00 0.03 71 989.3
20260506164401 68 145 17.0 26.0 0.00 0.00 0.00 61 989.3
20260506163900 72 221 11.0 16.0 0.00 0.00 0.00 46 989.1
20260506163400 72 203 3.0 5.0 0.00 0.00 0.00 43 988.8
20260506162900 72 253 6.0 8.0 0.00 0.00 0.00 42 988.6
20260506162400 72 268 5.0 7.0 0.00 0.00 0.00 42 988.8
20260506161900 73 248 3.0 8.0 0.00 0.00 0.00 42 988.7
20260506161358 73 225 5.0 6.0 0.00 0.00 0.00 41 988.6
20260506160858 73 178 2.0 7.0 0.00 0.00 0.00 42 988.7
20260506160357 73 255 4.0 8.0 0.00 0.00 0.00 42 988.6
20260506155857 73 153 6.0 9.0 0.00 0.00 0.00 42 988.8
20260506155356 73 264 7.0 10.0 0.00 0.00 0.00 42 988.7
20260506154855 73 219 4.0 6.0 0.00 0.00 0.00 42 988.7
20260506154354 73 265 6.0 8.0 0.00 0.00 0.00 41 988.8
20260506153854 73 243 7.0 10.0 0.00 0.00 0.00 41 988.6
20260506153354 74 203 4.0 9.0 0.00 0.00 0.00 41 988.8
20260506152853 74 124 3.0 7.0 0.00 0.00 0.00 40 988.7
20260506152352 74 246 6.0 8.0 0.00 0.00 0.00 40 988.9
20260506151851 74 276 6.0 7.0 0.00 0.00 0.00 40 988.8
20260506151350 74 185 3.0 6.0 0.00 0.00 0.00 40 988.8
20260506150849 74 200 5.0 8.0 0.00 0.00 0.00 40 988.9
20260506150350 74 258 7.0 11.0 0.00 0.00 0.00 39 989.0
20260506145848 74 294 7.0 11.0 0.00 0.00 0.00 40 989.0
20260506145348 74 215 6.0 10.0 0.00 0.00 0.00 40 988.9
20260506144848 74 213 4.0 13.0 0.00 0.00 0.00 40 989.2
20260506143847 74 228 8.0 11.0 0.00 0.00 0.00 38 989.2
20260506143346 74 199 4.0 9.0 0.00 0.00 0.00 39 989.1
20260506142846 74 229 6.0 9.0 0.00 0.00 0.00 41 989.2
20260506142346 73 234 3.0 8.0 0.00 0.00 0.00 42 989.4
20260506141845 73 294 1.0 8.0 0.00 0.00 0.00 43 989.5
20260506141345 72 250 13.0 15.0 0.00 0.00 0.00 43 989.5
20260506140844 72 237 11.0 13.0 0.00 0.00 0.00 43 989.5
20260506140343 72 224 8.0 10.0 0.00 0.00 0.00 44 989.5
20260506135842 72 295 3.0 7.0 0.00 0.00 0.00 44 989.7
20260506135341 73 232 6.0 14.0 0.00 0.00 0.00 44 989.5
20260506134840 73 281 9.0 11.0 0.00 0.00 0.00 43 989.6
20260506134340 72 146 3.0 13.0 0.00 0.00 0.00 44 989.5
20260506133840 72 144 6.0 11.0 0.00 0.00 0.00 46 989.7
20260506133339 72 225 8.0 15.0 0.00 0.00 0.00 45 989.7
20260506132838 72 232 13.0 16.0 0.00 0.00 0.00 46 989.6
20260506132337 73 237 8.0 18.0 0.00 0.00 0.00 45 989.5
20260506131836 72 60 4.0 11.0 0.00 0.00 0.00 46 989.6
20260506131336 72 232 11.0 14.0 0.00 0.00 0.00 46 989.8
20260506130835 73 208 8.0 23.0 0.00 0.00 0.00 45 989.7
20260506130334 73 228 9.0 15.0 0.00 0.00 0.00 45 989.7
20260506125834 72 299 5.0 11.0 0.00 0.00 0.00 47 989.6
20260506125333 71 207 9.0 14.0 0.00 0.00 0.00 47 989.7
20260506124822 71 232 10.0 18.0 0.00 0.00 0.00 48 989.8
20260506124321 70 146 7.0 15.0 0.00 0.00 0.00 49 989.9
20260506123810 71 173 6.0 9.0 0.00 0.00 0.00 49 989.9
20260506123310 71 204 4.0 11.0 0.00 0.00 0.00 48 989.9
20260506122800 71 17 1.0 10.0 0.00 0.00 0.00 48 989.8
20260506122300 70 98 5.0 14.0 0.00 0.00 0.00 50 989.9
20260506121759 70 176 8.0 22.0 0.00 0.00 0.00 49 989.9
20260506121249 70 224 4.0 16.0 0.00 0.00 0.00 49 989.7
20260506120748 71 295 5.0 11.0 0.00 0.00 0.00 49 989.9
20260506120238 70 258 2.0 9.0 0.00 0.00 0.00 51 989.8
20260506115737 69 219 7.0 15.0 0.00 0.00 0.00 51 990.0
20260506115236 69 161 3.0 11.0 0.00 0.00 0.00 51 989.8
20260506114735 69 257 5.0 20.0 0.00 0.00 0.00 51 989.8
20260506114224 69 208 14.0 17.0 0.00 0.00 0.00 52 989.8
20260506113724 69 219 11.0 16.0 0.00 0.00 0.00 52 989.8
20260506113223 69 306 3.0 11.0 0.00 0.00 0.00 53 989.7
20260506112721 69 165 10.0 16.0 0.00 0.00 0.00 52 990.0
20260506112221 69 237 4.0 9.0 0.00 0.00 0.00 53 989.9
20260506111720 69 251 5.0 15.0 0.00 0.00 0.00 52 989.9
20260506111219 69 140 9.0 15.0 0.00 0.00 0.00 52 990.1
20260506110718 68 212 7.0 14.0 0.00 0.00 0.00 53 989.9
20260506110207 68 138 3.0 9.0 0.00 0.00 0.00 54 989.8
20260506105706 68 215 16.0 17.0 0.00 0.00 0.00 53 989.8
20260506105205 68 201 9.0 16.0 0.00 0.00 0.00 53 989.9
20260506104705 68 138 4.0 10.0 0.00 0.00 0.00 53 989.8
20260506104154 68 264 3.0 13.0 0.00 0.00 0.00 54 989.8
20260506103654 68 236 9.0 15.0 0.00 0.00 0.00 54 989.9
20260506103153 68 220 16.0 18.0 0.00 0.00 0.00 53 989.9
20260506102652 68 216 7.0 14.0 0.00 0.00 0.00 53 989.9
20260506102151 69 201 9.0 13.0 0.00 0.00 0.00 53 989.8
20260506101641 68 181 9.0 15.0 0.00 0.00 0.00 53 989.9
20260506101140 68 258 6.0 16.0 0.00 0.00 0.00 54 990.1
20260506100640 68 148 8.0 15.0 0.00 0.00 0.00 53 990.1
20260506100139 69 232 13.0 16.0 0.00 0.00 0.00 53 989.9
20260506095638 69 210 13.0 14.0 0.00 0.00 0.00 53 989.6
20260506095127 68 141 9.0 11.0 0.00 0.00 0.00 54 989.8
20260506094626 68 152 4.0 18.0 0.00 0.00 0.00 55 989.8
20260506094115 68 174 5.0 14.0 0.00 0.00 0.00 56 989.6
20260506093616 67 172 3.0 14.0 0.00 0.00 0.00 58 989.7
20260506093105 67 126 3.0 10.0 0.00 0.00 0.00 58 989.7
20260506092603 67 211 9.0 14.0 0.00 0.00 0.00 58 989.7
20260506092103 66 198 9.0 14.0 0.00 0.00 0.00 60 989.7
20260506091602 66 230 11.0 16.0 0.00 0.00 0.00 60 989.8
20260506091051 66 198 9.0 17.0 0.00 0.00 0.00 60 989.7
20260506090550 66 189 7.0 14.0 0.00 0.00 0.00 60 989.6
20260506090040 66 225 14.0 20.0 0.00 0.00 0.00 59 989.6
20260506085538 66 236 9.0 13.0 0.00 0.00 0.00 61 989.7
20260506085028 65 232 4.0 10.0 0.00 0.00 0.00 64 989.7
20260506084527 65 268 6.0 9.0 0.00 0.00 0.00 64 989.7
20260506084017 65 319 7.0 8.0 0.00 0.00 0.00 63 989.7
20260506083516 65 234 5.0 9.0 0.00 0.00 0.00 64 989.7
20260506083015 66 258 5.0 10.0 0.00 0.00 0.00 65 989.7
20260506082513 66 247 6.0 10.0 0.00 0.00 0.00 64 989.6
20260506082013 65 240 3.0 9.0 0.00 0.00 0.00 66 989.6
20260506081512 65 238 9.0 10.0 0.00 0.00 0.00 66 989.5
20260506081011 65 197 9.0 13.0 0.00 0.00 0.00 66 989.5
20260506080510 65 35 4.0 9.0 0.00 0.00 0.00 67 989.7
20260506073507 63 136 4.0 6.0 0.00 0.00 0.00 69 989.5
20260506073007 64 162 3.0 7.0 0.00 0.00 0.00 69 989.5
20260506072506 63 198 2.0 7.0 0.00 0.00 0.00 70 989.4
20260506072005 62 262 2.0 5.0 0.00 0.00 0.00 71 989.2
20260506071505 63 221 6.0 9.0 0.00 0.00 0.00 70 989.3
20260506071004 63 223 5.0 7.0 0.00 0.00 0.00 70 989.2
20260506070504 62 269 3.0 5.0 0.00 0.00 0.00 71 989.4
20260506062459 59 59 1.0 2.0 0.00 0.00 0.00 77 989.0
20260506061958 59 292 0.0 3.0 0.00 0.00 0.00 76 989.1
20260506061458 59 298 0.0 5.0 0.00 0.00 0.00 75 989.3
20260506060957 59 126 0.0 3.0 0.00 0.00 0.00 76 989.2
20260506060456 58 95 0.0 1.0 0.00 0.00 0.00 79 989.2
20260506050949 56 225 3.0 6.0 0.00 0.00 0.00 82 988.9
20260506050449 55 153 1.0 3.0 0.00 0.00 0.00 83 989.0
20260506044948 55 136 2.0 2.0 0.00 0.00 0.00 85 988.8
20260506044447 55 222 1.0 6.0 0.00 0.00 0.00 85 988.6
20260506043947 55 229 4.0 5.0 0.00 0.00 0.00 85 988.8
20260506043446 55 181 2.0 3.0 0.00 0.00 0.00 85 988.8
20260506042946 55 185 1.0 2.0 0.00 0.00 0.00 84 988.5
20260506042446 54 185 0.0 1.0 0.00 0.00 0.00 85 988.4
20260506041944 54 141 0.0 2.0 0.00 0.00 0.00 85 988.7
20260506041444 54 269 2.0 3.0 0.00 0.00 0.00 85 988.6
20260506040944 54 188 1.0 5.0 0.00 0.00 0.00 86 988.5
20260506040444 54 193 3.0 6.0 0.00 0.00 0.00 86 988.4
20260506035943 54 223 5.0 8.0 0.00 0.00 0.00 86 988.5
20260506035442 54 207 3.0 5.0 0.00 0.00 0.00 86 988.5
20260506034942 54 212 3.0 5.0 0.00 0.00 0.00 86 988.4
20260506034441 54 210 4.0 5.0 0.00 0.00 0.00 84 988.2
20260506033941 54 141 0.0 0.0 0.00 0.00 0.00 86 987.9
20260506033440 53 125 0.0 2.0 0.00 0.00 0.00 85 987.9
20260506032939 54 95 1.0 1.0 0.00 0.00 0.00 84 987.8
20260506032439 54 200 0.0 0.0 0.00 0.00 0.00 83 987.9
20260506031939 54 200 0.0 1.0 0.00 0.00 0.00 83 987.8
20260506031438 55 200 0.0 1.0 0.00 0.00 0.00 83 987.9
20260506030937 55 321 0.0 0.0 0.00 0.00 0.00 83 987.9
20260506030436 55 328 0.0 0.0 0.00 0.00 0.00 83 987.9
20260506025936 55 342 0.0 0.0 0.00 0.00 0.00 83 987.9
20260506025435 54 292 0.0 2.0 0.00 0.00 0.00 83 988.2
20260506024935 55 278 1.0 2.0 0.00 0.00 0.00 82 988.4
20260506024434 55 192 1.0 2.0 0.00 0.00 0.00 81 988.4
20260506023933 55 188 3.0 5.0 0.00 0.00 0.00 80 988.5
20260506023432 55 253 3.0 9.0 0.00 0.00 0.00 80 988.7
20260506022931 55 236 5.0 7.0 0.00 0.00 0.00 79 988.7
20260506022420 56 273 3.0 5.0 0.00 0.00 0.00 77 988.7
20260506021920 56 251 1.0 2.0 0.00 0.00 0.00 77 988.6
20260506021419 56 302 1.0 3.0 0.00 0.00 0.00 77 988.4
20260506020908 56 223 1.0 2.0 0.00 0.00 0.00 77 988.8
20260506020408 56 306 2.0 3.0 0.00 0.00 0.00 76 988.6
20260506015906 56 297 3.0 3.0 0.00 0.00 0.00 76 988.9
20260506015356 57 141 0.0 1.0 0.00 0.00 0.00 76 988.7
20260506014855 57 321 1.0 2.0 0.00 0.00 0.00 75 988.6
20260506014354 57 310 3.0 3.0 0.00 0.00 0.00 75 988.6
20260506013854 57 288 3.0 3.0 0.00 0.00 0.00 75 988.6
20260506013343 57 286 3.0 3.0 0.00 0.00 0.00 75 988.4
20260506012842 57 0 2.0 6.0 0.00 0.00 0.00 75 988.7
20260506012341 57 301 3.0 7.0 0.00 0.00 0.00 75 988.6
20260506011840 57 289 2.0 5.0 0.00 0.00 0.00 75 988.7
20260506011329 57 314 3.0 5.0 0.00 0.00 0.00 74 988.6
20260506010829 57 309 1.0 5.0 0.00 0.00 0.00 74 988.7
20260506010329 57 328 2.0 2.0 0.00 0.00 0.00 74 988.6
20260506005828 57 298 2.0 3.0 0.00 0.00 0.00 73 988.5
20260506005317 57 231 1.0 3.0 0.00 0.00 0.00 74 988.7
20260506004816 57 335 2.0 3.0 0.00 0.00 0.00 74 988.6
20260506004315 57 293 3.0 5.0 0.00 0.00 0.00 74 988.7
20260506003804 57 287 3.0 5.0 0.00 0.00 0.00 74 988.5
20260506003303 57 299 4.0 5.0 0.00 0.00 0.00 74 988.6
20260506002803 57 284 3.0 5.0 0.00 0.00 0.00 74 988.5
20260506002305 57 323 5.0 7.0 0.00 0.00 0.00 73 988.3
20260506001801 58 299 5.0 8.0 0.00 0.00 0.00 73 988.3
20260506001301 58 304 5.0 7.0 0.00 0.00 0.00 72 988.4
20260506000800 58 287 4.0 5.0 0.00 0.00 0.00 71 988.3
20260506000302 58 332 3.0 5.0 0.00 0.00 0.00 71 988.5
20260505235759 58 329 2.0 2.0 0.00 0.00 0.00 71 988.5
20260505235259 58 325 3.0 3.0 0.00 0.00 0.00 71 988.5
20260505234758 58 30 2.0 3.0 0.00 0.00 0.00 71 988.5
20260505234258 58 307 4.0 5.0 0.00 0.00 0.00 71 988.6
20260505233757 58 302 4.0 6.0 0.00 0.00 0.00 72 988.5
20260505233257 58 314 5.0 7.0 0.00 0.00 0.00 71 988.5
20260505232756 58 341 2.0 6.0 0.00 0.00 0.00 71 988.6
20260505232256 58 311 3.0 8.0 0.00 0.00 0.00 71 988.6
20260505231755 58 336 4.0 6.0 0.00 0.00 0.00 70 988.5
20260505231255 58 325 4.0 6.0 0.00 0.00 0.00 70 988.5
20260505230755 59 354 6.0 7.0 0.00 0.00 0.00 70 988.5
20260505230254 59 10 4.0 6.0 0.00 0.00 0.00 70 988.6
20260505225753 59 20 5.0 8.0 0.00 0.00 0.00 69 988.7
20260505225253 59 330 5.0 8.0 0.00 0.00 0.00 69 988.7
20260505224752 59 359 5.0 8.0 0.00 0.00 0.00 69 988.8
20260505224251 60 6 4.0 5.0 0.00 0.00 0.00 69 988.6
20260505223751 60 353 4.0 6.0 0.00 0.00 0.00 68 988.9
20260505223250 60 357 4.0 7.0 0.00 0.00 0.00 68 988.9
20260505222746 60 25 4.0 7.0 0.00 0.00 0.00 68 989.1
20260505222246 60 4 3.0 7.0 0.00 0.00 0.00 68 989.0
20260505221746 60 38 2.0 3.0 0.00 0.00 0.00 68 989.1
20260505221245 60 24 2.0 3.0 0.00 0.00 0.00 68 989.1
20260505220745 60 9 3.0 7.0 0.00 0.00 0.00 68 988.8
20260505220244 61 11 5.0 7.0 0.00 0.00 0.00 68 989.3
20260505215744 61 2 5.0 8.0 0.00 0.00 0.00 68 989.1